FDX5960 KIND-KJFK

Flight info

Callsign FDX5960
Flight time 1h 33m
Altitude 35000
Route MAREO5 BDOCK WWSHR Q29 JHW Q476 WLKES PUCKY1
Aircraft B77L/H-SDE1E2E3FGHIJ2J3J4J5M1RWXY/LB1D1

Departure

Time 2026-05-09 16:39
Airport Indianapolis International Airport (KIND)

Arrival

Time 2026-05-09 18:12
Airport John F. Kennedy International Airport (KJFK)
Time Latitude Longitude Altitude Speed Heading
2026-05-09 16:19 39.71406 -86.28106 791 ft 0 kts 134°
2026-05-09 16:33 39.71411 -86.28113 791 ft 4 kts 134°
2026-05-09 16:33 39.71429 -86.28135 791 ft 2 kts 135°
2026-05-09 16:33 39.71442 -86.28160 791 ft 4 kts 89°
2026-05-09 16:33 39.71432 -86.28185 791 ft 4 kts 41°
2026-05-09 16:34 39.71423 -86.28196 791 ft 1 kts 45°
2026-05-09 16:36 39.71469 -86.28139 790 ft 12 kts 44°
2026-05-09 16:37 39.71539 -86.28047 792 ft 15 kts 45°
2026-05-09 16:37 39.71618 -86.27966 792 ft 15 kts 13°
2026-05-09 16:37 39.71719 -86.27973 793 ft 15 kts 27°
2026-05-09 16:37 39.71798 -86.27883 795 ft 15 kts 45°
2026-05-09 16:38 39.71890 -86.27867 796 ft 15 kts 323°
2026-05-09 16:38 39.71954 -86.27970 794 ft 15 kts 264°
2026-05-09 16:38 39.71877 -86.28079 792 ft 22 kts 224°
2026-05-09 16:38 39.71642 -86.28380 788 ft 89 kts 224°
2026-05-09 16:39 39.70972 -86.29225 795 ft 178 kts 223°
2026-05-09 16:39 39.69992 -86.30489 1308 ft 208 kts 227°
2026-05-09 16:39 39.69009 -86.31877 2570 ft 208 kts 229°
2026-05-09 16:39 39.67997 -86.33254 3804 ft 215 kts 227°
2026-05-09 16:40 39.66777 -86.34436 4801 ft 231 kts 205°
2026-05-09 16:40 39.65030 -86.34601 5242 ft 275 kts 169°
2026-05-09 16:42 39.64404 -86.21499 9224 ft 261 kts 45°
2026-05-09 16:42 39.65603 -86.19701 9637 ft 266 kts 43°
2026-05-09 16:42 39.66872 -86.17934 10083 ft 269 kts 41°
2026-05-09 16:42 39.68170 -86.16163 10508 ft 271 kts 41°
2026-05-09 16:43 39.69486 -86.14401 10928 ft 273 kts 43°
2026-05-09 16:43 39.70700 -86.12466 11297 ft 280 kts 47°
2026-05-09 16:43 39.71842 -86.10396 11697 ft 284 kts 52°
2026-05-09 16:43 39.72874 -86.08198 12119 ft 288 kts 59°
2026-05-09 16:44 39.73727 -86.05721 11948 ft 312 kts 64°
2026-05-09 16:44 39.74499 -86.03032 11908 ft 323 kts 68°
2026-05-09 16:44 39.75185 -86.00225 12317 ft 329 kts 70°
2026-05-09 16:44 39.75806 -85.97348 12771 ft 334 kts 72°
2026-05-09 16:45 39.76388 -85.94407 13228 ft 338 kts 73°
2026-05-09 16:45 39.76944 -85.91420 13694 ft 342 kts 73°
2026-05-09 16:45 39.77488 -85.88388 14101 ft 345 kts 73°
2026-05-09 16:45 39.78025 -85.85331 14502 ft 348 kts 73°
2026-05-09 16:46 39.78558 -85.82252 14906 ft 351 kts 73°
2026-05-09 16:46 39.79092 -85.79148 15335 ft 353 kts 74°
2026-05-09 16:46 39.79629 -85.76021 15756 ft 355 kts 73°
2026-05-09 16:46 39.80158 -85.72929 16172 ft 356 kts 73°
2026-05-09 16:47 39.80695 -85.69784 16602 ft 357 kts 73°
2026-05-09 16:47 39.81239 -85.66589 17026 ft 357 kts 73°
2026-05-09 16:47 39.81774 -85.63447 17473 ft 357 kts 73°
2026-05-09 16:47 39.82311 -85.60293 17922 ft 356 kts 73°
2026-05-09 16:48 39.82842 -85.57164 18334 ft 355 kts 73°
2026-05-09 16:48 39.83373 -85.54030 18700 ft 353 kts 73°
2026-05-09 16:48 39.83896 -85.50933 19083 ft 350 kts 72°
2026-05-09 16:48 39.84411 -85.47883 19447 ft 347 kts 72°
2026-05-09 16:49 39.84930 -85.44802 19835 ft 343 kts 72°
2026-05-09 16:49 39.85437 -85.41783 20216 ft 338 kts 72°
2026-05-09 16:49 39.85927 -85.38867 20576 ft 331 kts 72°
2026-05-09 16:50 39.86895 -85.33101 21068 ft 324 kts 71°
2026-05-09 16:50 39.87380 -85.30231 20986 ft 332 kts 71°
2026-05-09 16:50 39.87875 -85.27279 21003 ft 337 kts 71°
2026-05-09 16:50 39.88364 -85.24270 21048 ft 343 kts 75°
2026-05-09 16:51 39.88661 -85.21142 21054 ft 353 kts 81°
2026-05-09 16:51 39.88829 -85.17925 21072 ft 361 kts 83°
2026-05-09 16:51 39.88967 -85.14620 21069 ft 370 kts 83°
2026-05-09 16:51 39.89109 -85.11238 21070 ft 379 kts 83°
2026-05-09 16:52 39.89266 -85.07769 21079 ft 388 kts 82°
2026-05-09 16:52 39.89438 -85.04217 21083 ft 398 kts 82°
2026-05-09 16:52 39.89562 -85.01767 21080 ft 405 kts 82°
2026-05-09 16:52 39.89751 -84.98117 21069 ft 415 kts 82°
2026-05-09 16:53 39.89950 -84.94326 21084 ft 424 kts 82°
2026-05-09 16:53 39.90154 -84.90458 21079 ft 434 kts 82°
2026-05-09 16:53 39.90363 -84.86500 21088 ft 443 kts 83°
2026-05-09 16:53 39.90575 -84.82455 21078 ft 453 kts 83°
2026-05-09 16:54 39.90790 -84.78322 21082 ft 461 kts 83°
2026-05-09 16:54 39.91007 -84.74105 21067 ft 470 kts 83°
2026-05-09 16:54 39.91226 -84.69827 21084 ft 478 kts 83°
2026-05-09 16:54 39.91447 -84.65473 21081 ft 486 kts 83°
2026-05-09 16:55 39.91671 -84.61038 21068 ft 493 kts 83°
2026-05-09 16:55 39.91895 -84.56554 21065 ft 499 kts 83°
2026-05-09 16:55 39.92119 -84.52035 21060 ft 501 kts 83°
2026-05-09 16:55 39.92341 -84.47504 21046 ft 501 kts 83°
2026-05-09 16:56 39.92560 -84.42982 21036 ft 499 kts 83°
2026-05-09 16:56 39.92778 -84.38479 21027 ft 498 kts 83°
2026-05-09 16:56 39.92996 -84.33979 21058 ft 498 kts 83°
2026-05-09 16:56 39.93212 -84.29476 21069 ft 497 kts 83°
2026-05-09 16:57 39.93687 -84.25074 21051 ft 489 kts 69°
2026-05-09 16:57 39.95046 -84.21060 21080 ft 481 kts 51°
2026-05-09 16:57 39.97091 -84.17682 21077 ft 471 kts 39°
2026-05-09 16:57 39.99354 -84.14627 21073 ft 470 kts 40°
2026-05-09 16:58 40.01557 -84.11455 21073 ft 473 kts 41°
2026-05-09 16:58 40.03721 -84.08204 21090 ft 475 kts 42°
2026-05-09 16:58 40.05882 -84.04908 21497 ft 483 kts 42°
2026-05-09 16:58 40.08082 -84.01551 22022 ft 491 kts 42°
2026-05-09 16:59 40.10336 -83.98120 22612 ft 499 kts 41°
2026-05-09 16:59 40.12611 -83.94668 23146 ft 506 kts 41°
2026-05-09 16:59 40.14928 -83.91158 23664 ft 513 kts 41°
2026-05-09 16:59 40.17265 -83.87621 24149 ft 518 kts 41°
2026-05-09 17:00 40.19633 -83.84033 24624 ft 522 kts 41°
2026-05-09 17:00 40.21987 -83.80456 25084 ft 513 kts 40°
2026-05-09 17:00 40.24286 -83.76948 25513 ft 503 kts 40°
2026-05-09 17:00 40.26541 -83.73505 25987 ft 494 kts 40°
2026-05-09 17:01 40.28754 -83.70129 26448 ft 485 kts 40°
2026-05-09 17:01 40.30962 -83.66769 27002 ft 488 kts 39°
2026-05-09 17:01 40.33188 -83.63390 27527 ft 491 kts 39°
2026-05-09 17:01 40.35390 -83.60043 28037 ft 493 kts 39°
2026-05-09 17:02 40.37631 -83.56628 28588 ft 495 kts 39°
2026-05-09 17:02 40.39877 -83.53196 29126 ft 497 kts 39°
2026-05-09 17:02 40.42128 -83.49750 29679 ft 498 kts 38°
2026-05-09 17:02 40.44379 -83.46297 30184 ft 499 kts 38°
2026-05-09 17:03 40.46635 -83.42830 30645 ft 499 kts 38°
2026-05-09 17:04 40.62226 -83.18769 34124 ft 485 kts 38°
2026-05-09 17:05 40.64406 -83.15390 34585 ft 482 kts 38°
2026-05-09 17:05 40.66568 -83.12035 34969 ft 480 kts 39°
2026-05-09 17:05 40.68737 -83.08679 34965 ft 486 kts 39°
2026-05-09 17:06 40.73173 -83.01816 34995 ft 498 kts 39°
2026-05-09 17:06 40.77697 -82.94782 34977 ft 510 kts 39°
2026-05-09 17:07 40.82331 -82.87542 34968 ft 521 kts 40°
2026-05-09 17:07 40.87018 -82.80197 34983 ft 530 kts 40°
2026-05-09 17:08 40.91843 -82.72619 35011 ft 540 kts 41°
2026-05-09 17:08 40.99135 -82.61131 34973 ft 551 kts 41°
2026-05-09 17:09 41.04081 -82.53316 34969 ft 556 kts 41°
2026-05-09 17:09 41.09065 -82.45420 34949 ft 560 kts 41°
2026-05-09 17:10 41.14066 -82.37476 34951 ft 562 kts 42°
2026-05-09 17:10 41.19078 -82.29494 34942 ft 562 kts 43°
2026-05-09 17:11 41.24070 -82.21523 34929 ft 561 kts 43°
2026-05-09 17:11 41.29041 -82.13569 34936 ft 559 kts 43°
2026-05-09 17:12 41.33971 -82.05587 34935 ft 561 kts 46°
2026-05-09 17:12 41.36044 -82.01141 34905 ft 572 kts 59°
2026-05-09 17:12 41.37527 -81.96196 34913 ft 577 kts 66°
2026-05-09 17:13 41.40321 -81.86221 34914 ft 574 kts 63°
2026-05-09 17:13 41.43404 -81.76419 34917 ft 573 kts 61°
2026-05-09 17:14 41.46564 -81.66642 34921 ft 574 kts 61°
2026-05-09 17:14 41.49662 -81.56900 34943 ft 574 kts 63°
2026-05-09 17:15 41.52753 -81.47071 34943 ft 574 kts 63°
2026-05-09 17:15 41.55836 -81.37253 34938 ft 573 kts 63°
2026-05-09 17:17 41.68053 -80.97981 34921 ft 571 kts 64°
2026-05-09 17:18 41.71075 -80.88177 34932 ft 570 kts 64°
2026-05-09 17:18 41.74084 -80.78378 34934 ft 569 kts 64°
2026-05-09 17:19 41.77089 -80.68556 34920 ft 569 kts 64°
2026-05-09 17:19 41.80076 -80.58760 34939 ft 569 kts 64°
2026-05-09 17:20 41.82901 -80.48846 34944 ft 570 kts 67°
2026-05-09 17:20 41.85549 -80.38820 34943 ft 570 kts 68°
2026-05-09 17:21 41.88199 -80.28793 34930 ft 569 kts 68°
2026-05-09 17:21 41.90872 -80.18807 34930 ft 569 kts 67°
2026-05-09 17:22 41.93557 -80.08799 34927 ft 569 kts 68°
2026-05-09 17:22 41.96225 -79.98802 34932 ft 569 kts 68°
2026-05-09 17:23 41.98885 -79.88783 34934 ft 569 kts 68°
2026-05-09 17:23 42.01511 -79.78840 34930 ft 568 kts 68°
2026-05-09 17:25 42.09377 -79.48829 34956 ft 566 kts 69°
2026-05-09 17:25 42.11978 -79.38822 34958 ft 566 kts 69°
2026-05-09 17:26 42.14567 -79.28818 34977 ft 566 kts 69°
2026-05-09 17:26 42.17146 -79.18804 34973 ft 565 kts 70°
2026-05-09 17:27 42.18020 -79.13640 34964 ft 565 kts 85°
2026-05-09 17:27 42.17933 -79.08383 34970 ft 563 kts 102°
2026-05-09 17:27 42.16920 -79.03307 34965 ft 558 kts 114°
2026-05-09 17:27 42.15433 -78.98501 34866 ft 558 kts 115°
2026-05-09 17:28 42.14048 -78.93585 34703 ft 564 kts 112°
2026-05-09 17:28 42.12781 -78.88579 34546 ft 564 kts 111°
2026-05-09 17:28 42.11576 -78.83567 34393 ft 562 kts 110°
2026-05-09 17:28 42.10383 -78.78567 34214 ft 559 kts 111°
2026-05-09 17:29 42.09180 -78.73597 34062 ft 557 kts 111°
2026-05-09 17:29 42.07958 -78.68650 33909 ft 555 kts 111°
2026-05-09 17:29 42.06726 -78.63739 33698 ft 553 kts 112°
2026-05-09 17:29 42.05485 -78.58854 33506 ft 552 kts 112°
2026-05-09 17:30 42.04235 -78.53960 33285 ft 552 kts 112°
2026-05-09 17:30 42.02988 -78.49083 33041 ft 551 kts 113°
2026-05-09 17:30 42.01741 -78.44210 32839 ft 550 kts 113°
2026-05-09 17:30 42.00500 -78.39358 32639 ft 550 kts 113°
2026-05-09 17:31 41.99254 -78.34500 32412 ft 548 kts 113°
2026-05-09 17:31 41.98015 -78.29677 32223 ft 546 kts 113°
2026-05-09 17:32 41.93113 -78.10655 31408 ft 533 kts 113°
2026-05-09 17:32 41.91898 -78.05968 31205 ft 530 kts 114°
2026-05-09 17:32 41.90690 -78.01315 31015 ft 526 kts 114°
2026-05-09 17:33 41.89488 -77.96701 30814 ft 522 kts 114°
2026-05-09 17:33 41.88293 -77.92119 30591 ft 519 kts 115°
2026-05-09 17:33 41.87103 -77.87559 30397 ft 515 kts 115°
2026-05-09 17:33 41.85920 -77.83035 30193 ft 512 kts 115°
2026-05-09 17:34 41.84744 -77.78553 30012 ft 509 kts 115°
2026-05-09 17:35 41.77756 -77.52098 28627 ft 497 kts 115°
2026-05-09 17:35 41.76600 -77.47754 28414 ft 497 kts 115°
2026-05-09 17:36 41.75440 -77.43405 28215 ft 496 kts 115°
2026-05-09 17:36 41.74280 -77.39061 27966 ft 495 kts 115°
2026-05-09 17:36 41.73123 -77.34727 27770 ft 494 kts 115°
2026-05-09 17:36 41.71963 -77.30389 27553 ft 493 kts 115°
2026-05-09 17:37 41.70808 -77.26080 27355 ft 492 kts 115°
2026-05-09 17:37 41.69649 -77.21758 27097 ft 492 kts 116°
2026-05-09 17:37 41.68494 -77.17466 26869 ft 490 kts 115°
2026-05-09 17:37 41.67339 -77.13180 26672 ft 489 kts 115°
2026-05-09 17:38 41.66180 -77.08892 26485 ft 489 kts 115°
2026-05-09 17:38 41.65023 -77.04619 26258 ft 488 kts 115°
2026-05-09 17:38 41.63868 -77.00363 26045 ft 487 kts 115°
2026-05-09 17:39 41.61565 -76.91886 25691 ft 485 kts 115°
2026-05-09 17:39 41.60799 -76.89073 25545 ft 484 kts 115°
2026-05-09 17:39 41.59649 -76.84852 25313 ft 483 kts 115°
2026-05-09 17:39 41.58115 -76.79237 25053 ft 480 kts 115°
2026-05-09 17:40 41.56985 -76.75101 24839 ft 471 kts 115°
2026-05-09 17:40 41.56248 -76.72408 24685 ft 467 kts 115°
2026-05-09 17:40 41.55118 -76.68300 24539 ft 476 kts 115°
2026-05-09 17:40 41.53979 -76.64162 24356 ft 474 kts 115°
2026-05-09 17:41 41.52845 -76.60041 24169 ft 471 kts 115°
2026-05-09 17:41 41.51720 -76.55953 23949 ft 468 kts 115°
2026-05-09 17:41 41.50596 -76.51885 23741 ft 467 kts 115°
2026-05-09 17:41 41.49468 -76.47816 23396 ft 467 kts 115°
2026-05-09 17:42 41.48341 -76.43754 23064 ft 467 kts 115°
2026-05-09 17:42 41.47220 -76.39715 22712 ft 465 kts 115°
2026-05-09 17:42 41.46098 -76.35678 22367 ft 463 kts 115°
2026-05-09 17:42 41.44984 -76.31671 22008 ft 459 kts 115°
2026-05-09 17:43 41.43875 -76.27688 21656 ft 456 kts 115°
2026-05-09 17:43 41.42774 -76.23745 21320 ft 453 kts 114°
2026-05-09 17:43 41.41680 -76.19832 20995 ft 449 kts 114°
2026-05-09 17:43 41.40589 -76.15935 20659 ft 447 kts 114°
2026-05-09 17:44 41.39505 -76.12070 20337 ft 445 kts 115°
2026-05-09 17:44 41.38422 -76.08225 19979 ft 443 kts 115°
2026-05-09 17:44 41.37343 -76.04392 19658 ft 440 kts 115°
2026-05-09 17:44 41.36271 -76.00584 19336 ft 438 kts 114°
2026-05-09 17:45 41.35204 -75.96796 19032 ft 436 kts 114°
2026-05-09 17:45 41.34141 -75.93036 18725 ft 434 kts 114°
2026-05-09 17:45 41.33079 -75.89284 18421 ft 432 kts 114°
2026-05-09 17:45 41.32024 -75.85564 18080 ft 429 kts 115°
2026-05-09 17:46 41.30969 -75.81845 17745 ft 429 kts 115°
2026-05-09 17:46 41.29918 -75.78148 17409 ft 427 kts 115°
2026-05-09 17:46 41.28867 -75.74451 17100 ft 426 kts 115°
2026-05-09 17:46 41.27817 -75.70769 16792 ft 425 kts 115°
2026-05-09 17:47 41.26748 -75.67119 16480 ft 423 kts 117°
2026-05-09 17:47 41.25584 -75.63545 16169 ft 420 kts 118°
2026-05-09 17:47 41.24380 -75.60016 15865 ft 418 kts 119°
2026-05-09 17:47 41.23176 -75.56509 15569 ft 415 kts 118°
2026-05-09 17:48 41.21988 -75.53024 15296 ft 413 kts 118°
2026-05-09 17:48 41.20830 -75.49600 14991 ft 411 kts 118°
2026-05-09 17:48 41.19664 -75.46136 14694 ft 410 kts 118°
2026-05-09 17:48 41.18504 -75.42685 14398 ft 408 kts 118°
2026-05-09 17:49 41.17340 -75.39216 14109 ft 407 kts 119°
2026-05-09 17:49 41.16188 -75.35795 13822 ft 405 kts 119°
2026-05-09 17:49 41.15051 -75.32426 13527 ft 404 kts 119°
2026-05-09 17:49 41.13889 -75.28984 13200 ft 403 kts 119°
2026-05-09 17:50 41.12759 -75.25640 12868 ft 401 kts 119°
2026-05-09 17:50 41.10472 -75.18891 12229 ft 396 kts 119°
2026-05-09 17:50 41.09350 -75.15564 11931 ft 394 kts 119°
2026-05-09 17:51 41.08233 -75.12257 11642 ft 392 kts 119°
2026-05-09 17:51 41.07116 -75.08973 11345 ft 390 kts 119°
2026-05-09 17:51 41.06014 -75.05743 11044 ft 389 kts 119°
2026-05-09 17:51 41.04892 -75.02447 10723 ft 386 kts 119°
2026-05-09 17:52 41.03805 -74.99258 10443 ft 382 kts 120°
2026-05-09 17:52 41.02706 -74.96032 10193 ft 377 kts 120°
2026-05-09 17:52 41.01641 -74.92927 9982 ft 373 kts 120°
2026-05-09 17:52 41.00572 -74.89798 9725 ft 373 kts 120°
2026-05-09 17:53 40.99538 -74.86662 9472 ft 373 kts 115°
2026-05-09 17:53 40.98893 -74.83307 9209 ft 380 kts 103°
2026-05-09 17:53 40.98576 -74.79826 8956 ft 381 kts 101°
2026-05-09 17:53 40.98254 -74.76337 8689 ft 382 kts 102°
2026-05-09 17:54 40.97900 -74.72856 8440 ft 382 kts 102°
2026-05-09 17:54 40.97523 -74.69394 8178 ft 381 kts 103°
2026-05-09 17:54 40.97130 -74.65929 7931 ft 379 kts 103°
2026-05-09 17:54 40.96733 -74.62501 7672 ft 377 kts 103°
2026-05-09 17:55 40.96332 -74.59089 7429 ft 374 kts 103°
2026-05-09 17:55 40.95932 -74.55702 7171 ft 372 kts 103°
2026-05-09 17:55 40.95532 -74.52336 6915 ft 369 kts 104°
2026-05-09 17:55 40.95131 -74.48984 6684 ft 367 kts 104°
2026-05-09 17:56 40.94735 -74.45658 6435 ft 365 kts 104°
2026-05-09 17:56 40.94339 -74.42347 6174 ft 364 kts 104°
2026-05-09 17:56 40.93942 -74.39045 5899 ft 363 kts 103°
2026-05-09 17:57 40.93154 -74.32506 5378 ft 358 kts 103°
2026-05-09 17:57 40.92764 -74.29273 5119 ft 355 kts 103°
2026-05-09 17:57 40.92375 -74.26054 4879 ft 353 kts 103°
2026-05-09 17:57 40.91987 -74.22850 4630 ft 351 kts 103°
2026-05-09 17:58 40.91601 -74.19679 4350 ft 346 kts 103°
2026-05-09 17:58 40.91231 -74.16612 4084 ft 327 kts 103°
2026-05-09 17:58 40.90888 -74.13768 3984 ft 301 kts 103°
2026-05-09 17:58 40.90352 -74.11274 3953 ft 263 kts 126°
2026-05-09 17:59 40.89409 -74.09386 3965 ft 234 kts 131°
2026-05-09 17:59 40.88518 -74.07608 3980 ft 232 kts 130°
2026-05-09 17:59 40.87635 -74.05819 3980 ft 233 kts 130°
2026-05-09 17:59 40.86761 -74.04038 3944 ft 225 kts 129°
2026-05-09 18:00 40.85936 -74.02349 3950 ft 216 kts 129°
2026-05-09 18:00 40.85125 -74.00693 3970 ft 218 kts 129°
2026-05-09 18:00 40.84296 -73.99013 3980 ft 221 kts 130°
2026-05-09 18:00 40.83459 -73.97313 3958 ft 219 kts 129°
2026-05-09 18:01 40.82625 -73.95603 3994 ft 221 kts 129°
2026-05-09 18:01 40.81799 -73.93921 3970 ft 220 kts 129°
2026-05-09 18:01 40.80965 -73.92220 3996 ft 222 kts 129°
2026-05-09 18:01 40.80124 -73.90507 3985 ft 223 kts 129°
2026-05-09 18:02 40.79281 -73.88789 3981 ft 222 kts 129°
2026-05-09 18:02 40.78561 -73.86988 3950 ft 226 kts 107°
2026-05-09 18:02 40.78608 -73.84915 4001 ft 236 kts 72°
2026-05-09 18:02 40.79464 -73.83067 3968 ft 238 kts 49°
2026-05-09 18:03 40.80631 -73.81426 4017 ft 246 kts 44°
2026-05-09 18:03 40.81917 -73.79980 3970 ft 241 kts 36°
2026-05-09 18:03 40.83252 -73.78652 4042 ft 238 kts 35°
2026-05-09 18:03 40.84521 -73.77394 4043 ft 220 kts 36°
2026-05-09 18:04 40.85710 -73.76210 3866 ft 206 kts 40°
2026-05-09 18:04 40.86569 -73.74687 3452 ft 209 kts 66°
2026-05-09 18:04 40.87146 -73.72951 3089 ft 212 kts 69°
2026-05-09 18:04 40.87679 -73.71163 3004 ft 207 kts 72°
2026-05-09 18:05 40.88166 -73.69379 2982 ft 205 kts 76°
2026-05-09 18:05 40.88279 -73.67557 2990 ft 200 kts 105°
2026-05-09 18:05 40.87938 -73.65764 2981 ft 202 kts 112°
2026-05-09 18:05 40.87320 -73.64187 2972 ft 188 kts 135°
2026-05-09 18:06 40.86464 -73.62901 2982 ft 184 kts 142°
2026-05-09 18:06 40.85418 -73.62111 2973 ft 168 kts 180°
2026-05-09 18:06 40.84270 -73.62181 2998 ft 168 kts 189°
2026-05-09 18:06 40.83082 -73.62308 3013 ft 175 kts 189°
2026-05-09 18:07 40.81948 -73.62739 2990 ft 164 kts 211°
2026-05-09 18:07 40.80973 -73.63463 3013 ft 160 kts 211°
2026-05-09 18:07 40.79954 -73.64074 3006 ft 161 kts 206°
2026-05-09 18:07 40.78931 -73.64616 2977 ft 155 kts 209°
2026-05-09 18:08 40.77951 -73.65225 3003 ft 158 kts 206°
2026-05-09 18:08 40.76924 -73.65847 2830 ft 165 kts 209°
2026-05-09 18:08 40.75921 -73.66561 2608 ft 163 kts 211°
2026-05-09 18:08 40.74947 -73.67309 2406 ft 160 kts 213°
2026-05-09 18:09 40.73995 -73.68053 2178 ft 157 kts 213°
2026-05-09 18:09 40.73100 -73.68755 1993 ft 143 kts 213°
2026-05-09 18:09 40.72252 -73.69422 1809 ft 144 kts 212°
2026-05-09 18:09 40.71380 -73.70109 1611 ft 149 kts 212°
2026-05-09 18:10 40.70487 -73.70810 1392 ft 146 kts 213°
2026-05-09 18:10 40.69914 -73.71259 1267 ft 146 kts 212°
2026-05-09 18:10 40.68730 -73.72189 1008 ft 148 kts 211°
2026-05-09 18:10 40.67850 -73.72880 801 ft 147 kts 212°
2026-05-09 18:11 40.66967 -73.73573 623 ft 150 kts 211°
2026-05-09 18:11 40.66066 -73.74278 408 ft 150 kts 211°
2026-05-09 18:11 40.65185 -73.74992 175 ft 146 kts 212°
2026-05-09 18:11 40.64328 -73.75649 51 ft 140 kts 211°
2026-05-09 18:12 40.63563 -73.76240 27 ft 105 kts 208°
2026-05-09 18:12 40.63109 -73.76596 29 ft 60 kts 213°
2026-05-09 18:12 40.62938 -73.76874 27 ft 4 kts 250°
2026-05-09 18:12 40.62937 -73.76875 27 ft 0 kts 250°
2026-05-09 18:13 40.62937 -73.76877 28 ft 1 kts 251°
2026-05-09 18:13 40.62936 -73.76882 28 ft 1 kts 251°
2026-05-09 18:13 40.62924 -73.76959 28 ft 16 kts 263°
2026-05-09 18:14 40.62999 -73.77124 28 ft 31 kts 301°
2026-05-09 18:14 40.63114 -73.77374 30 ft 30 kts 301°
2026-05-09 18:14 40.63194 -73.77554 27 ft 0 kts 301°
2026-05-09 18:16 40.63223 -73.77618 27 ft 21 kts 300°
2026-05-09 18:16 40.63322 -73.77811 27 ft 23 kts 330°
2026-05-09 18:16 40.63457 -73.77746 31 ft 22 kts 32°
2026-05-09 18:17 40.63583 -73.77648 26 ft 18 kts 31°
2026-05-09 18:17 40.63694 -73.77561 30 ft 18 kts 31°
2026-05-09 18:17 40.63801 -73.77477 28 ft 17 kts 30°
2026-05-09 18:17 40.63901 -73.77399 27 ft 17 kts 31°
2026-05-09 18:18 40.64001 -73.77323 29 ft 17 kts 33°
2026-05-09 18:18 40.64101 -73.77243 27 ft 17 kts 31°
2026-05-09 18:18 40.64201 -73.77165 27 ft 17 kts 31°
2026-05-09 18:18 40.64301 -73.77086 28 ft 17 kts 32°
2026-05-09 18:19 40.64401 -73.77010 29 ft 17 kts 22°
2026-05-09 18:19 40.64578 -73.76863 27 ft 17 kts 359°
2026-05-09 18:19 40.64691 -73.76844 28 ft 17 kts 26°
2026-05-09 18:20 40.64791 -73.76768 29 ft 17 kts 33°
2026-05-09 18:20 40.64880 -73.76768 28 ft 13 kts 328°
2026-05-09 18:20 40.64922 -73.76846 30 ft 11 kts 296°
2026-05-09 18:20 40.64955 -73.76932 31 ft 11 kts 298°
2026-05-09 18:21 40.64994 -73.77014 31 ft 11 kts 301°
2026-05-09 18:21 40.65033 -73.77098 31 ft 11 kts 301°
2026-05-09 18:21 40.65077 -73.77198 28 ft 14 kts 300°
2026-05-09 18:21 40.65129 -73.77315 29 ft 15 kts 300°
2026-05-09 18:22 40.65188 -73.77442 29 ft 17 kts 300°
2026-05-09 18:22 40.65250 -73.77581 28 ft 18 kts 302°
2026-05-09 18:22 40.65315 -73.77725 29 ft 18 kts 300°
2026-05-09 18:22 40.65384 -73.77870 30 ft 19 kts 302°
2026-05-09 18:23 40.65449 -73.78017 30 ft 19 kts 301°
2026-05-09 18:23 40.65518 -73.78169 26 ft 20 kts 302°
2026-05-09 18:23 40.65590 -73.78325 28 ft 20 kts 300°
2026-05-09 18:23 40.65636 -73.78430 26 ft 20 kts 300°
2026-05-09 18:24 40.65706 -73.78587 27 ft 20 kts 300°
2026-05-09 18:24 40.65780 -73.78712 28 ft 11 kts 336°
2026-05-09 18:24 40.65842 -73.78697 31 ft 9 kts 25°
2026-05-09 18:25 40.65954 -73.78617 31 ft 9 kts 28°
2026-05-09 18:25 40.66006 -73.78570 30 ft 9 kts 52°
2026-05-09 18:25 40.66003 -73.78488 29 ft 9 kts 101°
2026-05-09 18:25 40.66022 -73.78434 29 ft 6 kts 37°
2026-05-09 18:26 40.66057 -73.78406 31 ft 6 kts 31°
2026-05-09 18:26 40.66059 -73.78404 27 ft 0 kts 31°